Date,TemperatureHighF,TemperatureAvgF,TemperatureLowF,DewpointHighF,DewpointAvgF,DewpointLowF,HumidityHigh,HumidityAvg,HumidityLow,PressureMaxIn,PressureMinIn,WindSpeedMaxMPH,WindSpeedAvgMPH,GustSpeedMaxMPH,PrecipitationSumIn
2013-1-1,0.0,0.0,0.0,-47.4,-47.4,-47.4,8,8,8,30.50,30.36,2,0,2,0.20
2013-1-2,0.0,0.0,0.0,-47.4,-47.4,-47.4,8,8,8,30.39,30.21,0,0,0,0.00
2013-1-3,35.2,3.8,0.0,33.2,-38.4,-47.4,95,18,8,30.21,29.91,4,0,4,0.20
2013-1-4,45.1,36.9,34.0,42.4,35.7,32.7,98,96,88,30.11,29.84,4,1,4,0.28
2013-1-5,40.5,36.7,33.3,39.5,36.2,32.8,99,98,94,29.86,29.73,7,1,10,0.20
2013-1-6,42.6,38.0,35.2,41.1,37.4,35.0,99,98,94,29.80,29.63,5,1,5,0.25
2013-1-7,45.1,38.6,34.2,44.0,37.8,33.9,99,97,86,29.77,29.48,7,1,11,0.81
2013-1-8,47.5,40.2,37.2,46.6,39.4,36.2,99,97,93,29.78,29.31,11,3,15,1.39
2013-1-9,45.7,37.6,32.7,45.4,37.2,32.5,99,98,95,29.55,29.28,7,1,10,1.16
2013-1-10,35.6,33.4,29.7,35.1,32.7,27.4,99,97,91,29.73,29.55,4,0,6,0.17
2013-1-11,43.5,28.5,22.5,30.9,24.7,21.3,96,86,53,29.96,29.73,2,0,3,0.02
2013-1-12,41.7,25.5,19.6,29.9,21.8,18.4,96,87,50,30.07,29.95,3,0,4,0.01
2013-1-13,35.4,25.3,16.5,27.0,22.2,15.1,95,88,66,30.12,30.05,0,0,0,0.00
2013-1-14,36.7,31.2,27.5,30.9,29.0,26.3,96,92,75,30.19,30.07,2,0,2,0.01
2013-1-15,40.3,33.2,27.7,33.5,31.2,27.2,98,92,71,30.32,30.19,3,1,4,0.08
2013-1-16,50.7,31.4,23.2,37.4,28.9,22.5,99,91,60,30.31,30.14,4,0,4,0.11
2013-1-17,57.7,34.4,25.3,42.9,31.9,25.1,99,91,56,30.15,29.93,4,0,4,0.00
2013-1-18,51.3,32.3,25.2,40.9,30.2,24.7,99,93,65,29.96,29.89,3,0,3,0.00
2013-1-19,57.0,34.2,26.1,41.9,31.0,25.6,99,90,48,30.00,29.93,4,0,4,0.01
2013-1-20,60.4,37.2,29.7,41.2,32.6,28.9,98,85,49,30.02,29.89,4,0,4,0.00
2013-1-21,55.9,35.6,27.0,40.0,30.7,26.2,98,85,50,29.89,29.75,4,0,4,0.01
2013-1-22,52.5,34.7,25.2,40.6,31.7,24.4,97,89,55,29.78,29.55,2,0,4,0.00
2013-1-23,41.2,37.3,34.7,38.9,35.6,33.2,98,93,88,29.74,29.46,4,0,6,0.30
2013-1-24,47.1,38.1,32.7,42.4,36.6,31.5,98,95,79,29.84,29.69,4,0,4,0.26
2013-1-25,53.6,39.3,31.1,45.5,37.1,30.3,99,93,70,29.69,29.56,5,0,8,0.20
2013-1-26,37.2,33.9,31.1,36.7,33.4,30.6,99,98,97,29.65,29.52,2,0,3,0.32
2013-1-27,39.6,35.2,33.1,37.7,34.1,31.6,99,96,91,29.66,29.59,2,0,3,0.30
2013-1-28,35.4,33.6,33.1,34.1,32.1,31.6,95,94,93,29.68,29.60,3,0,4,0.25
2013-1-29,38.5,35.8,33.4,36.4,34.0,31.9,94,93,91,29.96,29.68,4,0,5,0.85
2013-1-30,47.5,40.0,35.1,41.2,36.4,33.2,93,87,78,30.01,29.95,3,0,4,0.04
2013-1-31,46.9,41.5,38.3,39.9,35.9,31.4,86,81,74,30.00,29.91,2,0,4,0.12
2013-2-1,50.7,40.9,34.9,45.0,32.0,19.9,90,72,31,30.05,29.95,6,1,7,0.00
2013-2-2,63.7,40.4,31.5,45.6,30.1,20.4,87,68,35,30.05,29.85,4,1,8,0.00
2013-2-3,47.1,38.5,30.9,42.2,23.3,6.3,89,57,22,29.93,29.82,2,0,4,0.04
2013-2-4,51.1,42.1,39.0,42.9,19.8,-8.4,89,47,10,29.82,29.51,4,0,8,0.01
2013-2-5,45.7,41.8,36.7,28.1,14.9,3.2,59,35,17,29.54,29.44,6,2,13,0.64
2013-2-6,46.6,41.7,39.0,39.4,16.5,-9.0,83,41,10,29.66,29.50,4,1,5,0.33
2013-2-7,49.8,39.9,34.0,40.1,19.5,-10.2,89,51,10,29.81,29.45,4,1,5,0.12
2013-2-8,49.6,37.6,32.5,36.8,15.4,-15.1,86,48,10,29.92,29.81,6,0,8,0.01
2013-2-9,44.2,38.2,33.6,38.0,20.6,-6.7,87,54,13,29.96,29.88,2,0,4,0.00
2013-2-10,52.5,37.6,29.7,37.8,19.5,-12.7,85,52,10,30.00,29.92,7,1,9,0.00
2013-2-11,45.7,40.2,34.9,39.0,23.4,-9.3,86,57,11,29.98,29.94,4,1,6,0.01
2013-2-12,45.5,40.9,36.3,39.0,11.2,-11.8,80,35,10,30.03,29.88,4,0,6,0.02
2013-2-13,46.6,42.1,36.3,38.7,14.4,-10.4,81,39,10,30.11,29.90,10,1,13,0.18
2013-2-14,53.1,43.5,38.1,42.7,14.1,-13.6,84,41,10,30.18,30.11,4,0,5,0.04
2013-2-15,62.8,45.5,36.0,45.2,27.5,-8.3,81,53,10,30.18,29.81,7,2,8,0.00
2013-2-16,45.9,40.7,35.6,28.0,6.7,-11.3,66,30,10,29.81,29.74,11,2,14,0.34
2013-2-17,46.4,38.6,31.6,38.4,12.4,-13.4,86,42,10,29.85,29.76,4,1,4,0.15
2013-2-18,45.0,36.2,31.3,36.1,6.8,-17.8,86,38,10,29.76,29.42,6,1,8,0.00
2013-2-19,57.0,37.4,29.1,36.0,13.8,-16.8,81,44,10,29.62,29.41,8,1,8,0.00
2013-2-20,41.9,36.4,32.0,36.2,16.3,-14.6,84,51,10,29.67,29.62,4,0,4,0.01
2013-2-21,39.2,35.5,32.7,8.6,-11.2,-16.9,35,14,10,29.67,29.63,3,0,4,0.33
2013-2-22,41.4,37.5,35.1,-11.1,-14.1,-16.0,10,10,10,29.65,29.27,8,2,21,1.13
2013-2-23,41.4,35.5,33.3,-11.1,-15.6,-17.3,10,10,10,29.99,29.48,4,1,6,0.61
2013-2-24,45.5,38.5,33.4,37.2,4.7,-17.2,81,34,10,29.99,29.57,6,1,9,0.05
2013-2-25,40.3,37.5,36.5,9.9,-8.1,-14.8,31,14,10,29.90,29.50,8,2,9,0.70
2013-2-26,45.5,38.5,31.6,37.9,10.4,-18.3,82,40,10,29.97,29.81,6,1,10,0.01
2013-2-27,55.8,40.7,33.8,39.3,8.3,-16.9,81,33,10,29.94,29.81,8,1,8,0.31
2013-2-28,44.1,41.4,37.0,5.6,-8.4,-14.4,26,12,10,29.92,29.84,5,1,7,0.54
2013-3-1,51.6,46.8,42.3,-3.1,-6.9,-10.4,10,10,10,29.95,29.88,10,2,16,0.30
2013-3-2,55.2,44.6,37.4,43.1,6.5,-8.6,75,27,10,29.88,29.64,12,2,17,0.51
2013-3-3,48.4,38.1,29.8,35.4,13.6,-15.0,82,42,10,29.95,29.77,8,2,10,0.02
2013-3-4,55.4,37.9,26.8,33.9,12.3,-20.4,79,41,10,29.95,29.62,10,2,12,0.01
2013-3-5,54.7,41.5,31.5,35.8,25.2,9.4,74,54,31,29.62,29.36,14,2,14,0.00
2013-3-6,44.2,39.8,33.3,32.4,22.1,-1.1,74,51,18,29.48,29.23,3,0,6,0.21
2013-3-7,55.8,42.0,36.9,41.7,9.8,-14.6,81,35,10,29.72,29.50,6,1,7,0.02
2013-3-8,59.9,42.3,31.8,39.3,25.5,6.1,78,52,23,29.86,29.69,8,2,11,0.00
2013-3-9,61.5,43.7,31.6,38.8,27.7,2.4,79,55,21,30.13,29.87,9,2,13,0.00
2013-3-10,47.8,40.9,32.5,38.9,25.6,5.5,78,57,23,30.13,30.02,5,1,5,0.00
2013-3-11,57.9,45.8,38.5,39.2,19.7,-10.9,75,41,10,30.06,29.80,5,1,8,0.02
2013-3-12,48.4,44.5,41.0,29.2,-0.8,-11.2,58,18,10,29.79,29.68,6,1,8,0.66
2013-3-13,53.8,49.0,44.8,33.8,-0.3,-8.4,49,14,10,29.80,29.71,3,1,6,0.39
2013-3-14,54.7,48.8,45.5,-0.8,-5.3,-7.9,10,10,10,29.75,29.65,8,1,13,0.28
2013-3-15,61.2,49.9,44.2,49.7,16.6,-8.8,80,37,10,29.82,29.72,11,2,11,0.07
2013-3-16,47.5,43.2,36.5,17.7,-0.8,-8.4,41,17,10,29.72,29.43,9,2,17,0.60
2013-3-17,42.3,37.6,35.4,24.3,1.6,-12.7,57,25,11,29.78,29.52,10,3,13,0.39
2013-3-18,50.2,38.2,33.3,37.9,2.9,-17.3,82,31,10,29.87,29.68,8,2,10,0.22
2013-3-19,53.6,40.0,30.4,36.7,16.0,-18.5,78,44,10,29.87,29.28,11,4,13,0.22
2013-3-20,52.5,42.0,35.1,40.6,16.2,-10.8,85,45,10,29.59,29.04,15,4,20,1.20
2013-3-21,45.5,36.3,33.1,36.3,14.3,-14.7,83,45,10,29.79,29.59,5,1,8,0.28
2013-3-22,48.2,36.5,30.4,35.3,6.2,-17.6,83,37,10,29.98,29.78,9,1,11,0.48
2013-3-23,54.5,37.9,29.3,32.4,12.7,-17.8,79,40,10,30.02,29.90,8,2,11,0.00
2013-3-24,57.9,39.4,27.1,34.0,18.6,-14.8,75,47,10,29.95,29.75,11,3,12,0.00
2013-3-25,65.8,43.7,27.7,36.9,22.6,-13.0,77,48,10,29.79,29.55,13,3,14,0.00
2013-3-26,70.0,47.6,31.3,41.2,28.9,2.2,75,51,15,29.63,29.55,8,2,14,0.00
2013-3-27,61.2,47.4,39.6,42.2,35.1,29.9,71,63,47,29.59,29.55,6,1,6,0.00
2013-3-28,69.4,52.4,38.5,45.9,38.3,28.8,75,59,39,30.12,29.98,8,2,9,0.01
2013-3-29,70.3,53.0,40.6,45.2,37.7,29.2,73,57,36,30.24,30.12,13,3,13,0.01
2013-3-30,77.7,54.6,38.1,45.1,35.7,28.4,71,53,21,30.25,30.06,11,2,14,0.00
2013-3-31,81.5,58.0,40.5,45.8,36.4,31.6,72,49,18,30.08,29.86,10,2,11,0.00
2013-4-1,71.4,53.7,37.4,50.0,39.2,20.7,73,59,35,30.09,29.93,11,1,12,0.00
2013-4-2,62.6,50.4,41.5,47.2,33.6,7.3,79,55,19,30.16,30.10,5,1,9,0.00
2013-4-3,71.1,55.0,46.8,46.4,41.5,37.3,75,62,38,30.15,29.95,6,1,8,0.00
2013-4-4,55.9,51.0,48.2,45.7,40.2,37.9,73,66,61,29.95,29.70,6,1,8,0.02
2013-4-5,53.6,48.9,45.5,44.6,31.0,14.3,75,52,28,29.97,29.90,10,2,11,1.30
2013-4-6,52.5,46.1,42.3,45.2,31.3,16.2,86,60,31,30.02,29.83,11,2,14,0.40
2013-4-7,44.2,40.5,34.9,38.7,25.8,16.7,84,57,39,29.98,29.64,4,0,8,0.71
2013-4-8,59.7,46.4,39.9,44.8,29.5,6.5,84,54,20,30.38,29.98,8,1,11,0.08
2013-4-9,56.3,48.2,39.7,45.0,37.6,25.4,79,67,50,30.45,30.32,9,0,11,0.00
2013-4-10,50.2,46.7,44.2,44.2,29.9,9.0,88,55,20,30.33,29.99,21,2,23,0.67
2013-4-11,60.3,47.2,39.0,42.6,35.9,26.4,87,66,39,30.40,30.30,9,2,9,0.07
2013-4-12,48.9,39.8,34.5,39.2,29.8,22.0,86,68,43,30.30,29.75,5,0,10,0.37
2013-4-13,42.4,37.9,34.5,37.3,29.1,19.5,90,71,44,30.09,29.82,14,2,14,0.47
2013-4-14,55.8,43.5,34.3,39.4,27.1,-5.8,78,54,10,30.13,30.01,7,1,10,0.01
2013-4-15,58.5,44.0,37.6,41.6,34.2,28.0,85,69,50,30.29,30.05,9,2,13,0.12
2013-4-16,63.3,44.9,33.3,39.5,28.2,19.5,78,55,21,30.52,30.30,8,1,10,0.01
2013-4-17,63.9,46.1,33.3,41.1,33.7,24.2,78,63,33,30.57,30.49,9,1,9,0.00
2013-4-18,45.5,43.5,42.4,37.2,34.5,31.9,75,70,63,30.55,30.50,0,0,0,0.00
2013-4-19,55.2,49.7,43.9,49.8,39.6,20.4,87,70,32,30.32,30.17,11,1,12,0.22
2013-4-20,48.6,46.6,45.0,44.1,34.5,28.6,88,63,47,30.36,29.92,9,1,11,0.14
2013-4-21,52.9,44.2,37.9,45.9,32.7,22.7,87,65,41,30.08,29.91,10,1,16,0.14
2013-4-22,67.5,48.2,33.1,39.1,25.1,6.0,77,46,10,30.25,30.08,8,2,8,0.00
2013-4-23,71.8,50.0,34.9,41.3,32.5,24.4,78,57,19,30.14,29.91,8,1,12,0.00
2013-4-24,74.5,54.9,36.5,40.6,33.8,25.4,78,51,16,30.04,29.75,13,2,16,0.00
2013-4-25,77.2,56.6,37.6,46.9,38.3,31.0,77,54,23,29.84,29.73,11,2,14,0.00
2013-4-26,77.0,58.9,41.2,49.1,42.5,32.9,77,57,27,29.93,29.85,9,1,12,0.00
2013-4-27,58.5,51.2,47.8,46.0,40.7,34.2,77,67,45,29.89,29.83,8,1,21,0.18
2013-4-28,59.4,49.5,44.6,47.6,38.3,27.9,84,66,46,29.89,29.62,11,1,11,0.28
2013-4-29,51.3,44.8,39.4,39.6,35.2,27.3,85,70,40,29.84,29.57,14,4,17,0.17
2013-4-30,56.1,42.3,32.9,39.7,32.4,24.2,84,69,44,30.14,29.84,11,1,11,0.38
2013-5-1,71.1,49.7,31.5,41.8,31.7,24.4,79,56,20,30.29,30.14,7,1,9,0.00
2013-5-2,77.2,56.5,39.2,44.9,36.3,23.3,78,53,15,30.26,30.03,11,1,11,0.00
2013-5-3,80.4,59.5,41.2,50.1,41.8,33.9,76,56,27,30.10,29.90,8,2,12,0.00
2013-5-4,88.2,66.4,47.1,49.3,38.4,24.4,73,43,10,29.97,29.70,8,2,12,0.00
2013-5-5,94.3,69.7,49.1,48.7,38.3,25.1,70,39,10,29.74,29.46,10,3,11,0.00
2013-5-6,93.4,70.4,48.7,49.6,38.9,27.5,73,39,10,29.60,29.43,10,2,13,0.00
2013-5-7,79.9,64.8,48.6,54.0,48.3,41.3,78,57,39,29.68,29.52,8,2,13,0.00
2013-5-8,72.3,59.1,47.1,55.1,47.6,36.0,80,66,53,29.83,29.69,10,2,14,0.00
2013-5-9,80.6,62.5,46.2,57.1,47.7,34.3,75,59,42,29.90,29.77,9,1,13,0.00
2013-5-10,87.3,66.9,48.9,58.3,50.7,41.2,76,59,33,29.91,29.77,9,1,11,0.00
2013-5-11,88.0,70.2,56.1,56.7,51.9,47.2,75,55,26,29.88,29.65,5,1,9,0.00
2013-5-12,72.7,62.7,57.0,61.1,53.2,46.8,83,71,62,29.79,29.68,7,1,8,0.24
2013-5-13,60.1,53.6,44.1,55.4,45.6,36.0,90,75,59,29.88,29.62,10,1,21,0.98
2013-5-14,69.8,53.0,42.1,47.3,39.6,32.1,79,62,31,29.93,29.81,4,1,8,0.01
2013-5-15,72.9,53.8,41.0,46.8,41.3,34.7,78,65,30,29.84,29.67,14,1,14,0.06
2013-5-16,77.2,59.8,49.8,54.4,46.0,38.5,79,62,35,29.73,29.54,7,1,10,0.13
2013-5-17,59.4,54.4,50.9,52.5,47.1,42.6,86,76,69,29.73,29.62,6,0,8,0.13
2013-5-18,64.4,55.5,50.0,49.9,44.7,39.1,79,67,51,29.96,29.74,6,1,10,0.01
2013-5-19,62.1,55.2,50.0,52.1,47.6,41.7,84,75,67,30.08,29.96,8,1,9,0.00
2013-5-20,75.7,60.6,49.3,53.4,47.6,41.4,82,64,42,30.04,29.59,8,1,13,0.00
2013-5-21,53.4,49.7,46.8,47.5,43.4,38.9,87,79,73,29.59,29.48,4,0,8,0.39
2013-5-22,54.3,48.0,45.0,47.1,41.2,35.9,88,77,68,29.64,29.53,14,1,14,0.24
2013-5-23,61.5,50.1,41.7,50.0,41.4,33.4,84,72,60,29.69,29.62,6,1,12,0.04
2013-5-24,67.5,53.5,42.1,48.6,42.7,34.1,81,67,47,29.73,29.66,9,1,16,0.01
2013-5-25,69.3,55.3,48.0,49.7,44.9,40.1,84,69,44,29.74,29.68,7,1,11,0.07
2013-5-26,63.0,54.2,47.1,52.8,46.4,40.6,81,75,65,29.70,29.66,9,1,9,0.02
2013-5-27,63.5,55.8,50.5,54.1,48.0,43.1,82,75,64,29.66,29.43,4,0,6,0.11
2013-5-28,63.9,56.0,51.4,53.4,47.8,43.3,87,74,57,29.57,29.47,5,0,9,0.07
2013-5-29,59.2,52.2,47.7,51.5,46.0,39.8,89,79,68,29.65,29.37,8,0,12,0.19
2013-5-30,66.4,54.0,47.3,50.2,44.5,38.7,83,71,47,29.92,29.66,4,0,8,0.04
2013-5-31,70.2,58.0,48.6,52.5,45.9,41.7,80,66,43,30.02,29.92,9,1,14,0.08
2013-6-1,72.5,59.3,47.1,52.6,47.4,40.9,80,66,42,29.95,29.74,6,1,13,0.00
2013-6-2,70.7,60.7,53.2,53.1,49.6,45.7,81,68,49,29.77,29.72,8,1,13,0.00
2013-6-3,78.6,63.7,48.0,55.2,50.1,42.2,81,64,40,29.80,29.71,10,2,17,0.00
2013-6-4,87.8,67.5,49.3,55.4,49.7,43.7,81,58,24,29.83,29.69,9,1,13,0.00
2013-6-5,84.9,66.6,50.5,57.1,52.0,44.6,80,62,32,29.78,29.70,14,1,14,0.00
2013-6-6,85.8,67.7,52.5,59.3,52.0,46.5,81,60,33,29.74,29.65,10,2,13,0.00
2013-6-7,69.8,60.0,51.3,51.7,48.6,45.3,81,67,45,29.85,29.73,7,0,8,0.00
2013-6-8,71.6,60.2,48.7,52.6,48.6,43.2,81,67,50,29.88,29.78,10,1,14,0.00
2013-6-9,72.3,59.0,48.0,50.5,45.9,42.5,81,64,37,29.81,29.71,13,2,17,0.00
2013-6-10,74.8,59.7,43.0,50.2,45.4,37.9,82,61,40,29.74,29.54,12,2,14,0.00
2013-6-11,69.3,56.2,50.4,51.3,46.0,43.6,81,70,43,29.79,29.61,10,1,11,0.01
2013-6-12,72.0,57.8,49.6,52.6,46.6,43.1,82,68,38,29.83,29.78,8,1,11,0.08
2013-6-13,68.2,56.9,50.5,53.5,48.3,43.8,85,73,52,29.90,29.83,11,1,12,0.05
2013-6-14,72.3,58.6,50.7,51.8,47.6,43.4,80,68,45,29.92,29.78,10,1,12,0.02
2013-6-15,88.7,66.1,45.9,57.1,48.1,39.4,79,57,22,29.77,29.56,7,1,10,0.00
2013-6-16,81.5,65.5,50.9,58.7,52.9,43.3,78,65,43,29.77,29.66,13,2,15,0.00
2013-6-17,81.9,66.9,56.8,56.8,52.3,48.3,78,61,35,29.77,29.56,10,2,12,0.01
2013-6-18,76.3,62.1,52.5,55.5,50.4,44.8,83,67,41,29.67,29.57,11,1,11,0.01
2013-6-19,64.2,56.8,53.4,52.9,49.0,46.2,81,75,66,29.69,29.59,5,0,10,0.12
2013-6-20,56.3,53.4,51.6,51.5,46.6,43.8,85,78,72,29.81,29.64,5,0,8,0.46
2013-6-21,72.1,59.8,51.4,55.3,50.5,44.5,82,72,54,29.85,29.81,9,1,12,0.01
2013-6-22,83.7,67.0,54.5,56.9,51.8,46.6,77,61,36,29.82,29.56,5,1,11,0.00
2013-6-23,73.4,64.7,54.0,61.8,55.1,46.0,78,71,59,29.59,29.31,4,0,5,0.01
2013-6-24,70.7,62.1,57.6,56.9,53.6,49.7,83,74,59,29.40,29.28,5,0,6,0.25
2013-6-25,73.6,60.4,53.2,61.8,51.9,45.1,85,74,57,29.57,29.39,5,0,17,0.27
2013-6-26,74.5,61.1,54.5,61.6,53.7,48.1,84,77,63,29.79,29.57,4,0,5,0.09
2013-6-27,70.0,61.4,55.8,62.3,53.3,46.9,86,75,69,29.92,29.77,4,0,6,0.15
2013-6-28,94.5,73.7,59.0,68.1,59.9,52.6,81,64,36,29.92,29.72,8,1,10,0.00
2013-6-29,90.5,74.5,64.4,69.6,62.4,54.8,81,67,47,29.81,29.67,7,1,12,0.14
2013-6-30,104.0,79.9,61.7,69.1,60.3,51.7,79,56,18,29.73,29.52,7,1,8,0.00
2013-7-1,95.0,77.8,62.8,68.1,62.5,53.4,79,61,39,29.71,29.56,11,1,15,0.00
2013-7-2,87.1,71.8,59.5,63.5,56.8,51.8,79,61,40,29.79,29.71,15,2,19,0.00
2013-7-3,83.3,66.5,51.6,56.2,51.3,44.3,82,61,34,29.85,29.70,13,2,15,0.00
2013-7-4,75.6,62.7,48.4,55.9,50.6,41.8,82,66,47,29.81,29.70,11,2,18,0.00
2013-7-5,72.5,62.7,52.0,59.5,53.2,45.0,81,72,58,29.73,29.64,8,0,12,0.00
2013-7-6,84.7,67.4,54.5,60.7,55.0,47.1,80,66,43,29.67,29.52,6,1,11,0.00
2013-7-7,86.0,69.2,54.3,60.9,55.1,46.9,82,63,42,29.63,29.53,9,1,14,0.00
2013-7-8,85.8,66.6,52.7,61.6,54.8,45.7,83,67,43,29.79,29.64,9,1,13,0.00
2013-7-9,91.2,72.6,56.3,64.0,57.1,48.5,82,61,36,29.80,29.66,8,1,11,0.00
2013-7-10,80.1,65.8,52.9,57.6,52.5,45.9,81,64,44,29.74,29.62,12,2,17,0.00
2013-7-11,55.0,54.3,53.4,48.4,47.4,46.9,83,77,74,29.71,29.68,0,0,6,0.00
2013-7-22,84.4,73.7,61.7,63.1,60.8,53.9,82,65,48,29.99,29.93,9,2,11,0.00
2013-7-23,91.4,71.9,55.2,63.8,56.5,48.8,81,61,33,30.02,29.88,8,1,14,0.00
2013-7-24,90.9,71.2,53.2,61.3,55.2,46.6,83,60,33,30.01,29.91,10,2,11,0.00
2013-7-25,90.3,69.6,52.0,58.8,52.3,45.3,83,59,27,30.05,29.99,8,1,14,0.00
2013-7-26,90.9,69.6,51.4,55.5,50.0,44.8,83,54,27,30.09,30.00,13,1,16,0.00
2013-7-27,83.5,65.2,46.9,55.5,49.4,40.8,83,60,33,30.11,29.93,11,1,16,0.00
2013-7-28,80.4,64.2,48.9,56.0,51.5,42.7,82,65,41,29.96,29.87,14,2,17,0.00
2013-7-29,79.5,67.3,58.3,58.5,55.4,51.6,80,67,47,29.97,29.87,8,1,13,0.00
2013-7-30,84.0,67.7,54.1,61.3,55.7,47.4,83,67,44,30.08,29.97,11,1,11,0.00
2013-7-31,80.6,66.4,55.4,62.5,56.9,48.5,83,72,53,30.07,29.94,8,1,11,0.06
2013-8-1,66.4,62.9,60.1,59.0,55.7,51.4,84,77,73,30.00,29.95,6,0,10,0.00
2013-8-2,66.0,61.9,58.8,58.4,55.6,50.5,85,80,72,34.50,29.54,4,0,4,0.25
2013-8-3,60.4,58.4,57.7,51.7,50.4,49.7,77,75,73,35.12,30.07,0,0,0,0.00
2013-8-4,86.2,69.5,48.9,63.8,51.9,39.7,82,59,20,30.15,29.92,8,1,9,0.46
2013-8-5,90.5,72.6,56.3,65.0,58.3,49.5,83,63,38,30.00,29.89,10,1,11,0.00
2013-8-6,91.2,71.4,54.9,60.5,54.7,48.5,83,60,30,30.00,29.90,11,1,12,0.00
2013-8-7,91.4,71.2,54.5,59.3,54.1,47.6,84,59,27,30.00,29.91,12,1,16,0.00
2013-8-8,88.0,69.1,54.5,63.0,55.8,47.4,83,65,41,30.05,29.91,11,1,14,0.00
2013-8-9,90.9,71.1,54.1,63.0,57.5,47.4,83,65,38,29.97,29.81,11,1,11,0.00
2013-8-10,86.7,71.7,63.5,67.6,60.9,55.7,85,70,48,30.00,29.87,10,1,14,0.31
2013-8-11,77.7,65.8,59.0,64.2,57.4,51.1,85,75,60,30.06,29.99,7,1,13,0.21
2013-8-12,84.0,68.4,58.8,62.5,57.1,50.4,83,68,46,30.07,29.97,4,0,11,0.00
2013-8-13,88.7,70.3,58.3,62.0,57.2,51.8,82,66,39,30.11,29.94,4,0,10,0.00
2013-8-14,88.2,68.7,56.5,62.8,56.4,49.0,83,67,40,29.97,29.88,4,0,9,0.01
2013-8-15,73.2,65.6,61.9,64.7,58.0,53.9,88,76,72,30.00,29.93,2,0,3,0.60
2013-8-16,89.8,70.0,56.1,64.3,58.4,51.5,87,69,40,30.02,29.92,6,0,8,0.00
2013-8-17,84.0,67.7,58.4,61.7,58.1,53.7,93,73,40,30.13,30.00,10,1,11,0.00
2013-8-18,79.3,65.5,56.9,61.1,57.7,55.2,96,78,49,30.18,30.12,9,1,17,0.00
2013-8-19,76.1,64.6,53.8,59.8,56.0,51.1,96,75,53,30.18,30.12,6,1,11,0.00
2013-8-20,78.3,62.9,49.6,57.3,52.9,47.7,95,73,43,30.23,30.12,8,1,14,0.00
2013-8-21,86.0,66.1,51.7,61.0,55.2,49.5,93,72,38,30.17,29.99,5,1,9,0.00
2013-8-22,84.9,69.4,55.1,65.4,58.5,52.5,92,72,42,30.03,29.83,6,1,12,0.00
2013-8-23,76.3,65.6,59.8,60.9,58.1,55.3,94,78,57,29.93,29.88,9,1,17,0.00
2013-8-24,69.7,61.5,54.1,60.6,56.9,52.4,94,85,66,29.99,29.92,4,1,9,0.00
2013-8-25,77.1,61.0,49.0,58.9,54.3,47.9,98,81,46,30.02,29.90,5,1,11,0.06
2013-8-26,75.0,63.5,56.6,62.0,58.7,55.5,97,86,58,30.03,29.90,4,1,10,0.03
2013-8-27,78.2,65.2,57.8,62.9,59.4,56.5,96,83,52,30.02,29.85,3,0,8,0.03
2013-8-28,79.0,67.5,61.3,67.2,63.0,60.4,98,87,62,29.95,29.89,4,1,7,0.36
2013-8-29,66.5,63.9,62.2,65.2,62.8,61.4,98,96,91,30.07,29.94,4,1,5,1.60
2013-8-30,74.9,64.2,57.3,62.3,59.4,55.0,99,86,54,30.22,30.08,3,1,10,0.14
2013-8-31,85.8,65.6,51.4,65.4,56.5,50.0,95,76,36,30.17,29.89,6,1,9,0.00
2013-9-1,83.0,66.2,52.9,64.7,58.9,51.8,98,80,52,29.94,29.82,5,1,13,0.00
2013-9-2,82.6,67.8,57.7,63.5,59.9,56.8,98,78,49,29.99,29.88,4,1,15,0.00
2013-9-3,72.6,63.1,59.1,65.6,60.7,57.5,98,92,72,30.09,29.98,3,1,7,0.42
2013-9-4,77.0,64.0,57.5,64.8,60.0,56.4,97,87,62,30.11,30.04,4,1,12,0.00
2013-9-5,74.4,63.9,60.6,66.9,61.4,59.2,98,92,75,30.10,29.96,4,1,9,0.61
2013-9-6,74.2,63.7,58.9,65.8,61.0,58.3,99,92,71,30.16,29.99,5,1,11,1.03
2013-9-7,75.7,65.2,59.9,65.2,61.3,59.3,98,88,64,30.16,30.07,9,1,9,0.20
2013-9-8,80.9,66.1,56.4,65.7,60.6,55.6,98,84,56,30.16,30.07,5,0,11,0.00
2013-9-9,82.3,65.7,55.0,66.6,60.0,54.2,99,84,56,30.12,30.02,7,1,10,0.00
2013-9-10,88.3,68.4,55.1,68.6,61.0,54.1,98,80,46,30.07,29.94,3,1,9,0.00
2013-9-11,95.0,72.4,59.1,68.7,60.7,55.5,90,70,30,30.05,29.93,4,1,7,0.00
2013-9-12,87.7,69.2,56.2,65.2,59.9,54.1,94,75,45,30.04,29.92,5,1,9,0.00
2013-9-13,76.1,62.7,55.0,66.0,59.4,53.9,98,89,69,30.02,29.92,7,1,11,0.00
2013-9-14,80.2,66.9,60.8,67.7,61.9,59.1,96,85,63,29.95,29.80,4,1,7,0.00
2013-9-15,75.4,62.7,57.4,64.5,60.0,56.4,99,91,68,29.86,29.75,10,1,13,0.15
2013-9-16,63.9,60.2,56.0,60.1,58.3,54.7,98,94,86,29.99,29.85,3,1,7,0.06
2013-9-17,61.3,56.1,52.5,55.1,53.7,51.7,98,92,79,30.01,29.91,3,0,6,0.11
2013-9-18,67.9,56.8,51.4,58.1,53.1,49.2,98,89,63,30.16,30.00,5,1,8,0.11
2013-9-19,80.5,59.3,43.6,57.5,48.5,42.6,98,72,33,30.15,29.86,7,2,12,0.00
2013-9-20,77.9,59.7,44.2,57.4,49.9,43.1,97,74,40,29.86,29.61,6,1,16,0.05
2013-9-21,66.9,58.9,54.2,58.8,55.7,52.5,98,90,70,29.76,29.70,8,1,8,0.16
2013-9-22,54.5,53.1,51.5,53.3,52.1,50.0,98,96,94,29.79,29.65,4,1,9,1.49
2013-9-23,56.6,52.0,48.7,54.5,51.1,48.2,99,97,89,30.04,29.78,4,1,8,0.82
2013-9-24,60.8,51.0,46.3,51.7,48.6,45.8,99,92,68,30.04,29.91,4,1,7,0.04
2013-9-25,62.9,52.8,45.0,53.0,48.8,43.9,98,87,65,30.10,29.93,4,1,13,0.00
2013-9-26,66.0,50.3,41.1,53.2,45.8,40.2,99,86,57,30.21,30.10,6,1,11,0.00
2013-9-27,50.6,47.4,42.1,49.8,46.6,41.0,98,97,95,30.20,29.93,4,0,5,0.22
2013-9-28,55.3,50.3,47.7,55.0,49.8,46.9,99,98,94,29.93,29.38,14,2,17,4.26
2013-9-29,50.4,49.1,48.1,49.3,48.2,45.3,99,97,83,29.63,29.28,11,2,19,2.17
2013-9-30,50.5,47.8,45.3,48.1,45.5,43.5,98,92,80,29.96,29.43,11,3,20,0.32
2013-10-1,52.9,47.0,43.9,49.6,45.4,42.9,98,94,83,30.19,29.97,9,1,10,0.44
2013-10-2,50.5,46.7,43.5,49.4,45.9,43.0,99,97,92,30.25,30.13,2,0,4,0.32
2013-10-3,60.8,49.1,43.4,51.1,45.7,42.9,99,89,63,30.53,30.26,2,0,8,0.00
2013-10-4,67.0,51.3,39.3,51.2,45.1,38.0,98,82,48,30.58,30.45,6,1,10,0.00
2013-10-5,74.2,54.4,43.3,52.3,46.2,41.2,95,77,32,30.46,30.23,4,1,8,0.00
2013-10-6,79.2,55.7,40.8,55.5,46.4,39.9,99,75,29,30.23,29.92,6,1,14,0.00
2013-10-7,53.3,49.2,46.3,50.9,47.8,45.2,98,95,82,30.07,29.93,8,2,12,1.09
2013-10-8,59.6,47.7,42.4,50.2,45.4,41.3,98,92,68,30.17,30.02,7,1,11,0.56
2013-10-9,62.8,45.9,34.6,48.3,41.9,33.8,99,87,56,30.24,30.04,4,1,8,0.00
2013-10-10,55.6,48.5,41.7,49.0,45.3,40.6,98,89,71,30.15,30.01,3,0,6,0.00
2013-10-11,53.0,42.0,37.2,46.7,40.8,36.4,99,95,78,30.23,30.15,2,0,4,0.00
2013-10-12,62.1,50.3,45.3,51.1,47.1,44.5,98,90,60,30.28,30.14,11,2,11,0.09
2013-10-13,62.6,49.1,39.5,50.0,45.2,38.5,98,88,57,30.45,30.29,10,3,10,0.00
2013-10-14,65.9,46.3,35.0,50.7,41.6,34.2,99,86,51,30.50,30.43,7,3,7,0.00
2013-10-15,66.5,48.3,35.7,51.5,43.8,34.7,98,86,50,30.49,30.26,9,2,9,0.00
2013-10-16,65.8,48.6,37.4,51.9,44.1,36.4,98,86,57,30.28,30.20,4,1,6,0.00
2013-10-17,68.5,48.5,36.2,52.9,43.7,35.4,99,86,51,30.35,30.28,3,1,7,0.00
2013-10-18,69.9,48.5,35.6,52.1,43.2,34.8,98,85,47,30.34,30.23,3,1,6,0.00
2013-10-19,66.2,47.4,35.9,51.6,42.9,34.9,98,86,52,30.27,30.19,3,1,5,0.00
2013-10-20,63.0,45.7,38.1,51.5,43.0,37.6,98,91,66,30.28,30.21,3,0,6,0.00
2013-10-21,69.4,46.9,34.9,54.3,42.9,34.1,99,88,56,30.24,30.17,3,0,5,0.00
2013-10-22,74.3,50.1,38.1,56.1,45.0,37.2,99,85,49,30.21,30.10,3,1,4,0.00
2013-10-23,75.3,50.1,37.8,54.9,44.1,36.8,98,83,37,30.13,30.05,3,1,4,0.00
2013-10-24,73.7,47.9,35.7,51.0,42.0,34.9,98,84,40,30.19,30.06,2,0,5,0.00
2013-10-25,49.4,44.8,40.7,47.5,43.8,39.9,99,96,92,30.41,30.19,2,0,4,0.00
2013-10-26,62.0,48.3,42.7,48.8,44.2,40.7,96,86,62,30.42,30.25,6,1,12,0.00
2013-10-27,61.0,47.6,41.5,49.4,45.2,40.3,98,92,65,30.26,29.96,4,1,9,0.10
2013-10-28,63.0,45.5,36.0,43.7,37.6,32.5,98,78,33,30.06,29.95,5,1,11,0.00
2013-10-29,61.0,41.1,31.1,41.3,34.6,29.6,95,80,39,30.13,30.05,7,1,9,0.00
2013-10-30,56.9,41.9,30.0,44.8,37.5,28.7,97,86,55,30.21,30.12,2,0,6,0.00
2013-10-31,51.4,47.3,44.7,49.5,46.3,43.7,98,96,91,30.34,30.18,2,0,3,0.25
2013-11-1,54.2,48.9,45.4,50.9,47.3,44.7,98,94,86,30.35,29.94,3,1,7,0.00
2013-11-2,49.4,44.7,40.4,47.8,43.7,39.2,99,96,85,29.94,29.52,11,2,23,1.90
2013-11-3,44.3,38.7,33.2,43.0,37.9,32.4,98,97,92,30.21,29.94,7,1,8,0.33
2013-11-4,49.0,37.8,31.6,39.8,35.2,31.1,99,91,61,30.30,30.20,6,1,10,0.00
2013-11-5,43.2,40.0,36.2,42.7,39.3,35.2,99,97,95,30.33,30.14,2,0,8,0.49
2013-11-6,49.0,43.5,39.7,45.6,42.5,39.4,99,96,85,30.42,30.17,3,1,6,0.08
2013-11-7,47.0,44.2,42.9,45.8,43.4,42.0,99,97,93,30.16,29.79,9,2,12,1.83
2013-11-8,49.3,44.5,39.3,46.7,43.3,38.5,99,95,85,30.25,30.04,3,1,10,0.09
2013-11-9,47.0,40.8,32.8,44.2,39.6,32.3,99,96,87,30.26,30.15,3,0,6,0.02
2013-11-10,45.8,43.6,41.7,45.3,43.2,41.4,99,99,97,30.25,30.20,2,0,5,0.20
2013-11-11,57.3,46.0,36.1,53.1,44.4,35.8,100,94,81,30.30,30.11,6,2,8,0.00
2013-11-12,50.8,47.7,43.2,50.5,47.1,42.2,100,98,90,30.41,30.12,4,1,8,0.24
2013-11-13,52.3,48.6,45.6,50.9,48.0,45.3,100,98,92,30.50,30.39,4,0,10,0.23
2013-11-14,49.9,44.6,38.4,48.3,43.9,37.9,100,98,93,30.39,30.12,3,0,7,0.06
2013-11-15,41.6,39.5,36.0,41.2,39.1,35.5,99,98,96,30.14,29.40,9,1,11,1.12
2013-11-16,41.3,37.6,34.3,40.2,37.1,33.8,99,98,92,29.83,29.40,5,1,17,0.58
2013-11-17,41.3,38.6,34.0,40.8,38.2,33.5,99,98,97,29.98,29.83,5,1,12,0.24
2013-11-18,43.4,42.0,40.3,43.4,42.0,40.2,100,100,99,29.97,29.62,4,1,8,1.60
2013-11-19,44.5,40.5,31.1,44.5,39.4,30.1,100,96,88,30.14,29.57,4,1,11,0.50
2013-11-20,44.3,30.8,25.2,34.2,28.4,24.2,98,91,59,30.62,30.14,4,1,8,0.00
2013-11-21,43.9,28.4,21.7,33.7,25.5,20.6,98,90,61,30.77,30.62,5,1,9,0.01
2013-11-22,46.3,31.1,24.9,37.8,28.4,23.8,97,90,62,30.78,30.57,4,1,7,0.00
2013-11-23,45.9,32.7,25.5,41.0,31.1,24.5,98,94,79,30.57,30.31,3,1,5,0.00
2013-11-24,50.4,34.5,28.4,41.3,32.6,27.9,99,94,66,30.36,30.26,4,1,5,0.00
2013-11-25,52.5,35.7,28.1,44.9,33.7,27.6,98,93,63,30.41,30.36,3,0,4,0.00
2013-11-26,51.1,35.2,27.4,41.3,33.5,26.7,99,94,68,30.37,30.22,4,1,5,0.00
2013-11-27,54.4,38.3,31.2,46.5,36.4,30.4,99,93,72,30.22,30.05,3,1,5,0.00
2013-11-28,53.1,35.9,28.7,44.8,34.0,28.2,98,93,72,30.27,30.13,3,0,4,0.00
2013-11-29,50.7,39.5,35.0,44.8,38.5,34.4,99,96,80,30.40,30.27,2,0,4,0.03
2013-11-30,44.6,41.8,39.9,44.3,41.5,39.5,100,99,98,30.41,30.17,2,0,4,0.20
2013-12-1,47.7,43.8,37.3,47.5,43.2,35.5,100,98,90,30.17,29.78,9,2,17,1.82
2013-12-2,38.4,34.9,30.0,36.2,33.7,28.9,99,96,86,30.16,29.86,4,1,13,0.20
2013-12-3,37.0,27.2,21.5,31.1,25.1,20.3,97,92,68,30.43,30.17,3,1,5,0.01
2013-12-4,36.3,25.3,18.7,27.1,22.5,17.3,97,90,65,30.47,30.41,4,0,6,0.01
2013-12-5,34.4,22.8,16.8,26.0,19.9,15.1,96,89,64,30.44,30.31,3,0,7,0.00
2013-12-6,32.7,19.4,11.3,21.6,13.8,9.3,93,80,46,30.40,30.28,8,1,13,0.00
2013-12-7,28.2,15.5,8.3,16.6,10.4,6.2,93,81,47,30.55,30.40,6,1,10,0.00
2013-12-8,31.5,18.8,9.4,19.6,14.5,7.2,93,84,55,30.68,30.53,3,1,9,0.00
2013-12-9,29.3,22.7,12.2,24.5,19.6,10.1,94,88,71,30.70,30.58,2,0,3,0.00
2013-12-10,34.2,29.7,26.5,31.0,27.6,24.2,95,92,87,30.59,30.52,2,0,3,0.00
2013-12-11,41.0,31.1,24.4,33.1,28.5,23.2,97,90,69,30.53,30.28,6,0,9,0.00
2013-12-12,34.9,31.1,26.1,34.4,30.5,25.2,99,98,96,30.27,30.14,3,1,5,0.22
2013-12-13,41.3,35.6,33.3,41.1,35.3,33.0,100,99,98,30.52,30.24,2,0,3,0.04
2013-12-14,40.1,36.1,32.1,40.1,35.8,31.9,100,99,99,30.54,30.41,3,1,5,0.00
2013-12-15,45.0,39.3,36.2,45.0,39.1,35.9,100,99,99,30.54,30.41,3,0,5,0.03
2013-12-16,44.4,35.5,30.1,41.9,34.9,29.6,100,98,87,30.59,30.38,3,1,9,0.00
2013-12-17,39.7,33.5,29.2,38.1,32.9,28.7,99,98,93,30.38,30.19,3,0,4,0.00
2013-12-18,43.2,34.3,26.1,39.4,33.1,25.4,100,96,77,30.26,30.10,10,1,13,0.01
2013-12-19,34.4,27.0,21.2,31.4,25.5,20.0,98,94,80,30.44,30.24,3,1,6,0.00
2013-12-20,32.2,29.6,26.2,32.0,29.0,25.5,99,97,97,30.29,29.83,1,0,3,0.00
2013-12-21,35.6,33.0,32.2,34.8,32.6,32.0,99,99,96,30.27,29.94,1,0,3,0.25
2013-12-22,35.9,33.6,32.4,35.6,33.3,32.2,100,99,99,30.41,30.27,2,0,3,0.73
2013-12-23,43.7,36.7,33.4,42.9,35.9,33.1,100,97,85,30.59,30.18,7,1,18,0.84
2013-12-24,42.5,34.8,31.0,40.3,34.3,30.4,100,98,89,30.70,30.60,4,1,9,0.02
2013-12-25,39.8,33.0,27.2,37.2,32.2,26.7,99,97,89,30.65,30.50,5,3,5,0.00
2013-12-26,49.0,40.8,34.2,44.4,38.6,33.7,99,92,80,30.49,30.35,3,2,4,0.00
2013-12-27,39.5,35.7,28.7,39.5,35.6,28.2,100,99,98,30.44,30.17,3,1,9,0.24
2013-12-28,43.1,37.6,33.9,43.1,37.4,33.4,100,99,97,30.61,30.43,1,0,3,0.03
2013-12-29,39.6,35.9,31.6,39.6,35.7,31.4,100,99,99,30.57,30.41,3,1,8,0.07
2013-12-30,42.8,38.6,34.4,42.5,38.4,34.4,100,100,98,30.42,30.19,6,1,9,0.03
2013-12-31,44.8,40.7,38.4,44.2,40.5,38.4,100,99,96,30.46,30.27,2,0,3,0.00
2014-1-1,45.5,39.6,33.0,42.8,38.6,32.5,100,97,86,30.51,30.35,5,1,9,0.00
2014-1-2,43.1,41.0,39.6,43.1,40.8,39.3,100,99,95,30.34,29.97,6,1,16,0.95